North Bend, OR

12:46 PM PDT on September 19, 2017 (GMT -0700)
North Bend Municipal

Weather History for KOTH - September, 2013

Change the Weather History Date:

Wednesday, September 11, 2013

  Actual Average Record
Temperature  
Mean Temperature 62 °F 58 °F  
Max Temperature 68 °F 65 °F 91 °F (1947)
Min Temperature 55 °F 51 °F 38 °F (1910)
Degree Days  
Heating Degree Days 3 7  
Month to date heating degree days 19 72  
Since 1 July heating degree days 186 451  
Cooling Degree Days 0 0  
Month to date cooling degree days 1 0  
Year to date cooling degree days 13 1  
Growing Degree Days 12 (Base 50)    
Moisture  
Dew Point 58 °F    
Average Humidity 92    
Maximum Humidity 100    
Minimum Humidity 78    
Precipitation  
Precipitation 0.00 in 0.05 in 0.84 in (1954)
Month to date precipitation 0.46 0.43  
Year to date precipitation 18.39 37.67  
Sea Level Pressure  
Sea Level Pressure 29.96 in    
Wind  
Wind Speed 5 mph (WSW)    
Max Wind Speed 15 mph    
Max Gust Speed 22 mph    
Visibility 8 miles    
Events      
T = Trace of Precipitation, MM = Missing Value Source: NWS Daily Summary

Daily Weather History Graph

Daily Weather History Graph

Search for Another Location

Airport or City:

Trip Planner

Search our weather history database for the weather conditions in past years. The results will help you decide how hot, cold, wet, or windy it might be!

Date:

Astronomy

Sep. 11, 2013 Rise Set
Actual Time 6:52 AM PDT 7:33 PM PDT
Civil Twilight 6:23 AM PDT 8:02 PM PDT
Nautical Twilight 5:49 AM PDT 8:36 PM PDT
Astronomical Twilight 5:13 AM PDT 9:11 PM PDT
Moon 1:37 PM PDT (9/11) 11:23 PM PDT (9/11)
Length of Visible Light 13h 38m
Length of Day
12h 41m
Waxing Crescent, 40% of the Moon is Illuminated
Sep 11
Waxing Crescent
Sep 12
First Quarter
Sep 19
Full
Sep 26
Last Quarter
Oct 4
New

Hourly Weather History & Observations

Time (PDT) Temp. Dew Point Humidity Pressure Visibility Wind Dir Wind Speed Gust Speed Precip Events Conditions
12:15 AM 57.2 °F 57.2 °F 100% 29.88 in 10.0 mi Calm Calm - N/A   Overcast
12:35 AM 57.2 °F 57.2 °F 100% 29.88 in 10.0 mi Calm Calm - N/A   Overcast
12:55 AM 57.2 °F 57.2 °F 100% 29.89 in 10.0 mi SSW 3.5 mph - N/A   Overcast
1:15 AM 57.2 °F 57.2 °F 100% 29.89 in 9.0 mi SSW 4.6 mph - N/A   Overcast
1:35 AM 57.2 °F 57.2 °F 100% 29.89 in 7.0 mi SSW 3.5 mph - N/A   Overcast
1:55 AM 57.2 °F 57.2 °F 100% 29.89 in 8.0 mi Calm Calm - N/A   Overcast
2:15 AM 57.2 °F 57.2 °F 100% 29.89 in 10.0 mi South 4.6 mph - N/A   Overcast
2:35 AM 57.2 °F 57.2 °F 100% 29.89 in 9.0 mi Calm Calm - N/A   Overcast
2:55 AM 57.2 °F 57.2 °F 100% 29.89 in 7.0 mi Calm Calm - N/A   Overcast
3:15 AM 57.2 °F 57.2 °F 100% 29.89 in 10.0 mi Calm Calm - N/A   Overcast
3:35 AM 57.2 °F 57.2 °F 100% 29.89 in 10.0 mi Calm Calm - N/A   Overcast
3:55 AM 57.2 °F 57.2 °F 100% 29.89 in 10.0 mi Calm Calm - N/A   Overcast
4:15 AM 57.2 °F 57.2 °F 100% 29.90 in 10.0 mi Calm Calm - N/A   Overcast
4:35 AM 57.2 °F 57.2 °F 100% 29.90 in 10.0 mi WNW 4.6 mph - N/A   Overcast
4:55 AM 57.2 °F 57.2 °F 100% 29.90 in 10.0 mi WNW 3.5 mph - N/A   Overcast
5:15 AM 57.2 °F 57.2 °F 100% 29.91 in 7.0 mi WNW 3.5 mph - N/A   Overcast
5:35 AM 57.2 °F 57.2 °F 100% 29.91 in 10.0 mi West 4.6 mph - N/A   Overcast
5:55 AM 55.4 °F 55.4 °F 100% 29.92 in 9.0 mi WSW 5.8 mph - N/A   Overcast
6:15 AM 55.4 °F 55.4 °F 100% 29.93 in 10.0 mi WSW 4.6 mph - N/A   Overcast
6:35 AM 57.2 °F 57.2 °F 100% 29.93 in 10.0 mi Calm Calm - N/A   Overcast
6:55 AM 57.2 °F 57.2 °F 100% 29.94 in 2.0 mi Calm Calm - N/A   Overcast
7:15 AM 57.2 °F 57.2 °F 100% 29.94 in 2.0 mi Calm Calm - N/A   Overcast
7:35 AM 57.2 °F 55.4 °F 94% 29.94 in 2.0 mi Calm Calm - N/A   Overcast
7:55 AM 57.2 °F 57.2 °F 100% 29.94 in 2.0 mi Calm Calm - N/A   Overcast
8:15 AM 57.2 °F 57.2 °F 100% 29.95 in 2.0 mi ESE 5.8 mph - N/A   Overcast
8:35 AM 57.2 °F 57.2 °F 100% 29.95 in 2.0 mi East 3.5 mph - N/A   Overcast
8:55 AM 59.0 °F 57.2 °F 94% 29.95 in 2.0 mi ESE 3.5 mph - N/A   Overcast
9:15 AM 59.0 °F 59.0 °F 100% 29.95 in 2.0 mi East 3.5 mph - N/A   Overcast
9:35 AM 59.0 °F 57.2 °F 94% 29.95 in 2.0 mi Calm Calm - N/A   Overcast
9:55 AM 59.0 °F 57.2 °F 94% 29.96 in 3.0 mi Calm Calm - N/A   Overcast
10:15 AM 60.8 °F 59.0 °F 94% 29.96 in 3.0 mi Calm Calm - N/A   Overcast
10:35 AM 60.8 °F 59.0 °F 94% 29.97 in 3.0 mi WNW 3.5 mph - N/A   Overcast
10:55 AM 60.8 °F 59.0 °F 94% 29.97 in 3.0 mi Calm Calm - N/A   Overcast
11:15 AM 60.8 °F 59.0 °F 94% 29.97 in 6.0 mi Calm Calm - N/A   Overcast
11:35 AM 62.6 °F 59.0 °F 88% 29.97 in 6.0 mi Calm Calm - N/A   Overcast
11:55 AM 62.6 °F 60.8 °F 94% 29.98 in 10.0 mi WSW 5.8 mph - N/A   Overcast
12:15 PM 64.4 °F 60.8 °F 88% 29.98 in 10.0 mi WSW 3.5 mph - N/A   Overcast
12:35 PM 64.4 °F 60.8 °F 88% 29.97 in 10.0 mi West 10.4 mph - N/A   Overcast
12:55 PM 66.2 °F 60.8 °F 83% 29.97 in 10.0 mi West 11.5 mph - N/A   Overcast
1:15 PM 66.2 °F 60.8 °F 83% 29.97 in 10.0 mi West 13.8 mph - N/A   Overcast
1:35 PM 66.2 °F 60.8 °F 83% 29.97 in 10.0 mi WSW 15.0 mph - N/A   Overcast
1:55 PM 66.2 °F 60.8 °F 83% 29.97 in 10.0 mi WSW 12.7 mph - N/A   Overcast
2:15 PM 68.0 °F 60.8 °F 78% 29.97 in 10.0 mi WSW 13.8 mph - N/A   Overcast
2:35 PM 66.2 °F 60.8 °F 83% 29.97 in 10.0 mi WSW 13.8 mph - N/A   Overcast
2:55 PM 66.2 °F 60.8 °F 83% 29.97 in 10.0 mi WSW 15.0 mph 21.9 mph N/A   Overcast
3:15 PM 66.2 °F 60.8 °F 83% 29.97 in 10.0 mi WSW 15.0 mph - N/A   Mostly Cloudy
3:35 PM 66.2 °F 60.8 °F 83% 29.98 in 10.0 mi WSW 13.8 mph - N/A   Mostly Cloudy
3:55 PM 66.2 °F 59.0 °F 78% 29.98 in 10.0 mi WSW 13.8 mph - N/A   Scattered Clouds
4:15 PM 66.2 °F 59.0 °F 78% 29.98 in 10.0 mi WSW 12.7 mph - N/A   Scattered Clouds
4:35 PM 66.2 °F 60.8 °F 83% 29.98 in 10.0 mi West 15.0 mph - N/A   Scattered Clouds
4:55 PM 64.4 °F 59.0 °F 83% 29.98 in 10.0 mi WSW 12.7 mph - N/A   Mostly Cloudy
5:15 PM 62.6 °F 59.0 °F 88% 29.98 in 10.0 mi WSW 9.2 mph - N/A   Overcast
5:35 PM 62.6 °F 59.0 °F 88% 29.98 in 10.0 mi WSW 11.5 mph 17.3 mph N/A   Overcast
5:55 PM 62.6 °F 59.0 °F 88% 29.99 in 10.0 mi WSW 8.1 mph - N/A   Overcast
6:15 PM 62.6 °F 59.0 °F 88% 29.99 in 10.0 mi WSW 8.1 mph - N/A   Overcast
6:35 PM 62.6 °F 59.0 °F 88% 29.99 in 10.0 mi WSW 5.8 mph - N/A   Overcast
6:55 PM 62.6 °F 59.0 °F 88% 29.99 in 10.0 mi WSW 3.5 mph - N/A   Overcast
7:15 PM 60.8 °F 57.2 °F 88% 29.99 in 10.0 mi West 4.6 mph - N/A   Overcast
7:35 PM 60.8 °F 57.2 °F 88% 29.99 in 10.0 mi West 3.5 mph - N/A   Overcast
7:55 PM 62.6 °F 59.0 °F 88% 30.00 in 10.0 mi WSW 5.8 mph - N/A   Overcast
8:15 PM 62.6 °F 59.0 °F 88% 30.00 in 10.0 mi SW 3.5 mph - N/A   Overcast
8:35 PM 62.6 °F 59.0 °F 88% 30.00 in 10.0 mi WSW 3.5 mph - N/A   Overcast
8:55 PM 62.6 °F 59.0 °F 88% 30.00 in 10.0 mi West 5.8 mph - N/A   Overcast
9:15 PM 62.6 °F 59.0 °F 88% 30.01 in 10.0 mi WSW 4.6 mph - N/A   Overcast
9:35 PM 62.6 °F 59.0 °F 88% 30.01 in 10.0 mi West 3.5 mph - N/A   Overcast
9:55 PM 62.6 °F 59.0 °F 88% 30.01 in 10.0 mi West 3.5 mph - N/A   Overcast
10:15 PM 62.6 °F 59.0 °F 88% 30.01 in 10.0 mi SW 4.6 mph - N/A   Overcast
10:35 PM 62.6 °F 59.0 °F 88% 30.01 in 10.0 mi SW 4.6 mph - N/A   Overcast
10:55 PM 62.6 °F 59.0 °F 88% 30.01 in 10.0 mi SSW 4.6 mph - N/A   Overcast
11:15 PM 62.6 °F 59.0 °F 88% 30.01 in 10.0 mi SSW 4.6 mph - N/A   Overcast
11:35 PM 62.6 °F 59.0 °F 88% 30.01 in 10.0 mi SSE 5.8 mph - N/A   Overcast
11:55 PM 62.6 °F 59.0 °F 88% 30.01 in 10.0 mi South 5.8 mph - N/A   Overcast